x

Canaveral 20 Nm East Of Cape Canaveral, Fl (41009) Weather Station

8:20pm - Wed 23rd Jan 2019 All times are EST. -5 hours from GMT.

  • Wind
    27mph, 34mph gusts
  • Air Temp 73°f
  • Sea Pressure 1018.2mb
  • Canaveral 20 Nm East Of Cape Canaveral, Fl
  • Canaveral 20 Nm East Of Cape Canaveral, Fl

More Historic Weather Station data

Upgrade to MSW Pro to gain access to the past 30 days of data for over 8000 Wavebouys and Weather Stations around the globe.

Join

Comparision Forecast

View Surf forecast
   
Wed 01/23 8:20pm  -   -   -  27 34 mph 1018.2mb 73f
8:10pm  -   -   -  27 36 mph 1018.1mb 74f
8:00pm  -   -   -  27 34 mph 1018.3mb 73f
7:50pm 8ft 8s 6s 25 31 mph 1018.4mb 73f
7:40pm  -   -   -  25 31 mph 1018.5mb 73f
7:30pm  -   -   -  25 29 mph 1018.6mb 73f
7:20pm  -   -   -  27 34 mph 1018.8mb 73f
7:10pm  -   -   -  25 34 mph 1018.8mb 73f
7:00pm  -   -   -  27 36 mph 1018.7mb 73f
6:50pm 9ft 8s 6s 25 34 mph 1018.9mb 74f
6:40pm  -   -   -  27 31 mph 1018.8mb 74f
6:30pm  -   -   -  27 34 mph 1019mb 73f
6:20pm  -   -   -  27 36 mph 1019mb 73f
6:10pm  -   -   -  27 34 mph 1019.2mb 73f
6:00pm  -   -   -  25 31 mph 1019.1mb 73f
5:50pm 8.5ft 8s 6s 25 31 mph 1019.2mb 73f
5:40pm 8.5ft  -  6s 27 31 mph 1019.3mb 73f
5:30pm  -   -   -  27 36 mph 1019.3mb 73f
5:20pm  -   -   -  27 34 mph 1019.3mb 73f
5:10pm  -   -   -  25 31 mph 1019.3mb 73f
5:00pm  -   -   -  25 31 mph 1019.5mb 73f
4:50pm 9ft 8s 6s 27 34 mph 1019.5mb 73f
4:40pm 9ft  -  6s 27 36 mph 1019.5mb 73f
4:30pm  -   -   -  29 34 mph 1019.6mb 73f
4:20pm  -   -   -  29 36 mph 1019.8mb 73f
4:10pm  -   -   -  27 34 mph 1020mb 73f
4:00pm  -   -   -  27 31 mph 1020.3mb 73f
3:30pm  -   -   -  27 34 mph 1020.5mb 72f
3:20pm  -   -   -  27 34 mph 1020.5mb 73f
3:10pm  -   -   -  27 34 mph 1020.7mb 73f
3:00pm  -   -   -  25 31 mph 1020.8mb 73f
2:50pm 8ft 8s 6s 25 31 mph 1021.1mb 73f
2:40pm  -   -   -  27 31 mph 1021.3mb 73f
2:30pm  -   -   -  25 31 mph 1021.3mb 73f
2:20pm  -   -   -  25 31 mph 1021.4mb 73f
2:10pm  -   -   -  27 31 mph 1021.6mb 73f
2:00pm  -   -   -  27 34 mph 1021.8mb 73f
1:50pm 8ft 8s 6s 27 34 mph 1022mb 73f
1:40pm  -   -   -  27 34 mph 1022.1mb 73f
1:30pm  -   -   -  27 34 mph 1022.2mb 73f
1:20pm  -   -   -  27 31 mph 1022.6mb 73f
1:10pm  -   -   -  25 29 mph 1022.9mb 73f
1:00pm  -   -   -  25 31 mph 1023mb 73f
12:50pm 8.5ft 8s 6s 25 31 mph 1023.3mb 73f
12:40pm  -   -   -  25 31 mph 1023.5mb 73f
12:30pm  -   -   -  25 29 mph 1023.7mb 73f
12:20pm  -   -   -  25 31 mph 1023.9mb 73f
12:10pm  -   -   -  25 31 mph 1024mb 73f
12:00pm  -   -   -  25 31 mph 1024.2mb 73f
11:50am 9ft 8s 6s 25 31 mph 1024.2mb 73f
11:40am  -   -   -  25 29 mph 1024.4mb 73f
11:30am  -   -   -  25 29 mph 1024.5mb 73f
11:20am  -   -   -  27 31 mph 1024.5mb 73f
11:10am  -   -   -  25 31 mph 1024.6mb 73f
11:00am  -   -   -  25 29 mph 1024.8mb 73f
10:50am 8.5ft 8s 6s 25 31 mph 1024.8mb 73f
10:40am  -   -   -  25 31 mph 1024.8mb 73f
10:30am  -   -   -  27 31 mph 1024.8mb 73f
10:20am  -   -   -  27 31 mph 1025mb 73f
10:10am  -   -   -  25 31 mph 1025.1mb 73f
10:00am  -   -   -  27 31 mph 1025.1mb 73f
9:50am 8.5ft  -  6s 27 34 mph 1025.2mb 73f
9:40am 8.5ft 8s 6s  -  mph - -
9:30am  -   -   -  25 34 mph 1025.2mb 73f
9:20am  -   -   -  25 31 mph 1025.1mb 73f
9:10am  -   -   -  25 31 mph 1025mb 73f
9:00am  -   -   -  22 29 mph 1025mb 73f
8:50am 9ft 8s 6s 22 29 mph 1025mb 73f
8:40am  -   -   -  22 29 mph 1025.1mb 73f
8:30am  -   -   -  25 31 mph 1025.1mb 73f
8:20am  -   -   -  25 31 mph 1025mb 73f
8:10am  -   -   -  27 31 mph 1025.1mb 73f
8:00am  -   -   -  27 34 mph 1025mb 73f
7:50am 9.5ft  -  6s 27 34 mph 1024.9mb 73f
7:40am 9.5ft 8s 6s  -  mph - -
7:30am  -   -   -  25 34 mph 1025mb 72f
7:20am  -   -   -  25 31 mph 1025.1mb 72f
7:10am  -   -   -  27 31 mph 1025.2mb 72f
7:00am  -   -   -  27 34 mph 1025.3mb 72f
6:50am 9ft 7s 6s 27 31 mph 1025.2mb 72f
6:40am  -   -   -  25 31 mph 1025.2mb 71f
6:30am  -   -   -  22 27 mph 1025.3mb 70f
6:20am  -   -   -  27 34 mph 1025.4mb 70f
6:10am  -   -   -  27 34 mph 1025.3mb 70f
6:00am  -   -   -  22 31 mph 1025.3mb 70f
5:50am 8.5ft 8s 6s 25 31 mph 1025.5mb 70f
5:40am  -   -   -  25 31 mph 1025.4mb 72f
5:30am  -   -   -  25 29 mph 1025.3mb 72f
5:20am  -   -   -  25 31 mph 1025.2mb 72f
5:10am  -   -   -  27 34 mph 1025.1mb 72f
5:00am  -   -   -  25 31 mph 1025.1mb 72f
4:50am 8ft 8s 6s 25 31 mph 1025.1mb 72f
4:40am  -   -   -  25 31 mph 1025.2mb 72f
4:30am  -   -   -  25 29 mph 1025.3mb 72f
4:20am  -   -   -  22 29 mph 1025.4mb 72f
4:10am  -   -   -  22 29 mph 1025.5mb 72f
4:00am  -   -   -  25 31 mph 1025.5mb 72f
3:50am 9ft 7s 6s 25 29 mph 1025.5mb 71f
3:40am 9ft  -  6s 25 31 mph 1025.5mb 71f
3:30am  -   -   -  27 34 mph 1025.6mb 71f
3:20am  -   -   -  25 34 mph 1025.5mb 72f
3:10am  -   -   -  27 34 mph 1025.7mb 72f
3:00am  -   -   -  25 31 mph 1025.8mb 72f
2:50am 9.5ft 7s 6s 27 34 mph 1025.8mb 72f
2:40am  -   -   -  22 29 mph 1026.1mb 72f
2:30am  -   -   -  25 31 mph 1026.4mb 71f
2:20am  -   -   -  22 29 mph 1026.4mb 71f
2:10am  -   -   -  25 31 mph 1026.6mb 72f
2:00am  -   -   -  25 34 mph 1026.6mb 72f
1:50am 9.5ft 7s 6s 27 34 mph 1026.6mb 71f
1:40am 9.5ft  -  6s 27 36 mph 1026.6mb 71f
1:30am  -   -   -  27 34 mph 1026.5mb 71f
1:20am  -   -   -  27 34 mph 1026.5mb 71f
1:10am  -   -   -  27 34 mph 1026.5mb 71f
1:00am  -   -   -  27 34 mph 1026.7mb 71f
12:50am 9ft 7s 6s 27 34 mph 1027mb 71f
12:40am  -   -   -  25 34 mph 1027.1mb 70f
12:30am  -   -   -  22 34 mph 1027.3mb 70f
12:20am  -   -   -  25 31 mph 1027.3mb 71f
12:10am  -   -   -  25 31 mph 1027.4mb 71f
12:00am  -   -   -  25 31 mph 1027.6mb 71f
Tue 01/22 11:50pm 8ft 7s 6s 25 31 mph 1027.6mb 71f
11:40pm 8ft  -  6s 25 31 mph 1027.6mb 71f
11:30pm  -   -   -  25 31 mph 1027.7mb 71f
11:20pm  -   -   -  25 31 mph 1027.9mb 70f
11:10pm  -   -   -  25 34 mph 1027.9mb 70f
11:00pm  -   -   -  29 34 mph 1027.9mb 70f
10:50pm 8ft 7s 6s 27 34 mph 1028mb 70f
10:40pm  -   -   -  27 34 mph 1028mb 71f
10:30pm  -   -   -  27 34 mph 1028.2mb 71f
10:20pm  -   -   -  25 31 mph 1028.2mb 71f
10:10pm  -   -   -  27 34 mph 1028.3mb 71f
10:00pm  -   -   -  25 31 mph 1028.3mb 71f
9:50pm 7ft  -  6s 25 31 mph 1028.3mb 70f
9:40pm 7ft 7s 6s  -  mph - -
9:30pm  -   -   -  25 31 mph 1028.3mb 71f
9:20pm  -   -   -  25 29 mph 1028.5mb 71f
9:10pm  -   -   -  25 29 mph 1028.5mb 71f
9:00pm  -   -   -  22 29 mph 1028.5mb 71f
8:50pm 7ft 8s 6s 22 27 mph 1028.5mb 71f
8:40pm  -   -   -  22 27 mph 1028.6mb 71f
8:30pm  -   -   -  22 27 mph 1028.7mb 71f
8:20pm  -   -   -  20 27 mph 1028.8mb 71f
8:10pm  -   -   -  20 27 mph 1028.8mb 71f
8:00pm  -   -   -  22 27 mph 1028.7mb 71f
7:50pm 7ft 7s 6s 25 29 mph 1028.6mb 70f
7:40pm  -   -   -  22 29 mph 1028.7mb 70f
7:30pm  -   -   -  22 27 mph 1028.8mb 70f
7:20pm  -   -   -  25 29 mph - 70f
7:10pm  -   -   -  25 31 mph 1028.7mb 70f
7:00pm  -   -   -  22 29 mph 1028.6mb 70f
6:50pm 6.5ft 6s 5s 25 29 mph 1028.7mb 70f
6:40pm 6.5ft  -  5s 22 27 mph 1028.7mb 70f
6:30pm  -   -   -  22 29 mph 1028.5mb 70f
6:20pm  -   -   -  22 27 mph 1028.5mb 70f
6:10pm  -   -   -  22 27 mph 1028.5mb 70f
6:00pm  -   -   -  25 29 mph 1028.3mb 70f
5:50pm 6ft 8s 5s 25 29 mph 1028.3mb 70f
5:40pm  -   -   -  25 31 mph 1028.2mb 70f
5:30pm  -   -   -  25 31 mph 1028.3mb 70f
5:20pm  -   -   -  25 31 mph 1028.4mb 70f
5:10pm  -   -   -  25 31 mph 1028.4mb 69f
5:00pm  -   -   -  25 29 mph 1028.5mb 70f
4:50pm 6ft 7s 5s 22 29 mph 1028.6mb 70f
4:40pm  -   -   -  22 27 mph 1028.8mb 70f
4:30pm  -   -   -  22 29 mph 1028.8mb 70f
4:20pm  -   -   -  22 27 mph 1028.8mb 70f
4:10pm  -   -   -  22 27 mph 1028.8mb 70f
4:00pm  -   -   -  22 27 mph 1028.8mb 70f
3:50pm 6ft 9s 5s 22 27 mph 1028.9mb 70f
3:40pm  -   -   -  20 27 mph 1028.8mb 70f
3:30pm  -   -   -  20 27 mph 1028.8mb 69f
3:20pm  -   -   -  22 34 mph 1028.8mb 69f
3:10pm  -   -   -  20 27 mph 1028.9mb 69f
3:00pm  -   -   -  22 27 mph 1029.1mb 69f
2:50pm 6ft  -  5s 20 27 mph 1028.9mb 70f
2:40pm 6ft 9s 5s  -  mph - -
2:30pm  -   -   -  20 25 mph 1029.1mb 69f
2:20pm  -   -   -  20 25 mph 1029.3mb 69f
2:10pm  -   -   -  18 25 mph 1029.5mb 69f
2:00pm  -   -   -  18 22 mph 1029.6mb 69f
1:50pm 6ft 11s 6s 18 22 mph 1029.6mb 69f
1:40pm  -   -   -  18 22 mph 1029.6mb 69f
1:30pm  -   -   -  18 22 mph 1029.8mb 69f
1:20pm  -   -   -  18 22 mph 1029.9mb 69f
1:10pm  -   -   -  18 22 mph 1030.1mb 69f
1:00pm  -   -   -  18 22 mph 1030.2mb 69f
12:50pm 6ft  -  5s 18 25 mph 1030.3mb 69f
12:40pm 6ft 9s 5s  -  mph - -
12:30pm  -   -   -  20 25 mph 1030.4mb 69f
12:20pm  -   -   -  20 25 mph 1030.5mb 69f
12:10pm  -   -   -  20 27 mph 1030.6mb 69f
12:00pm  -   -   -  20 27 mph 1030.7mb 69f
11:50am 6ft 9s 6s 20 25 mph 1030.7mb 68f
11:40am  -   -   -  20 25 mph 1030.8mb 68f
11:30am  -   -   -  20 27 mph 1030.8mb 68f
11:20am  -   -   -  20 25 mph 1030.8mb 68f
11:10am  -   -   -  20 27 mph 1030.8mb 68f
11:00am  -   -   -  20 29 mph 1030.7mb 68f
10:50am 6ft 10s 6s 22 27 mph 1030.7mb 68f
10:40am  -   -   -  20 25 mph 1030.6mb 68f
10:30am  -   -   -  20 27 mph 1030.4mb 68f
10:20am  -   -   -  20 25 mph 1030.4mb 68f
10:10am  -   -   -  22 27 mph 1030.3mb 68f
10:00am  -   -   -  20 27 mph 1030.3mb 68f
9:50am 6ft 10s 6s 22 27 mph 1030.2mb 68f
9:40am  -   -   -  20 27 mph 1030.1mb 68f
9:30am  -   -   -  22 27 mph 1030mb 67f
9:20am  -   -   -  22 27 mph 1029.9mb 68f
9:10am  -   -   -  20 27 mph 1029.9mb 68f
9:00am  -   -   -  20 27 mph 1029.9mb 68f
8:50am 6ft 10s 6s 20 27 mph 1029.7mb 67f
8:40am  -   -   -  20 25 mph 1029.7mb 67f
8:30am  -   -   -  20 25 mph 1029.7mb 67f
8:20am  -   -   -  20 25 mph 1029.6mb 67f
8:10am  -   -   -  20 25 mph 1029.4mb 67f
8:00am  -   -   -  18 25 mph 1029.5mb 67f
7:50am 6ft 11s 5s 20 25 mph 1029.5mb 67f
7:40am  -   -   -  20 25 mph 1029.4mb 67f
7:30am  -   -   -  20 25 mph 1029.3mb 67f
7:20am  -   -   -  20 27 mph 1029.2mb 67f
7:10am  -   -   -  20 27 mph 1029.1mb 66f
7:00am  -   -   -  22 27 mph 1028.9mb 66f
6:50am 5ft 8s 5s 22 27 mph 1028.7mb 66f
6:40am 5ft  -  5s 22 27 mph 1028.8mb 66f
6:30am  -   -   -  20 25 mph 1028.7mb 66f
6:20am  -   -   -  20 27 mph 1028.5mb 66f
6:10am  -   -   -  20 25 mph 1028.5mb 66f
6:00am  -   -   -  18 25 mph 1028.5mb 66f
5:50am 5ft 7s 5s 18 22 mph 1028.5mb 66f
5:40am  -   -   -  18 22 mph 1028.3mb 66f
5:30am  -   -   -  18 22 mph 1028.3mb 67f
5:20am  -   -   -  16 20 mph 1028.3mb 66f
5:10am  -   -   -  18 22 mph 1028.2mb 66f
5:00am  -   -   -  18 22 mph 1028.2mb 66f
4:50am 5ft 7s 5s 18 22 mph 1028.1mb 66f
4:40am 5ft  -  5s 20 25 mph 1028mb 65f
4:30am  -   -   -  20 27 mph 1027.9mb 65f
4:20am  -   -   -  20 25 mph 1028mb 65f
4:10am  -   -   -  18 25 mph 1028mb 65f
4:00am  -   -   -  20 25 mph 1028mb 65f
3:50am 5ft 7s 5s 18 25 mph 1027.9mb 65f
3:40am 5ft  -  5s 20 25 mph 1027.9mb 65f
3:30am  -   -   -  20 25 mph 1027.8mb 65f
3:20am  -   -   -  20 25 mph 1027.9mb 65f
3:10am  -   -   -  18 25 mph 1027.8mb 65f
3:00am  -   -   -  20 25 mph 1027.7mb 65f
2:50am 5ft 7s 5s 18 25 mph 1027.7mb 65f
2:40am  -   -   -  16 22 mph 1027.8mb 65f
2:30am  -   -   -  13 18 mph 1028mb 65f
2:20am  -   -   -  16 22 mph 1028mb 66f
2:10am  -   -   -  16 22 mph 1027.9mb 65f
2:00am  -   -   -  18 22 mph 1027.9mb 65f
1:50am 4.5ft 7s 5s 16 22 mph 1027.9mb 65f
1:40am  -   -   -  18 22 mph 1028mb 65f
1:30am  -   -   -  18 25 mph 1028mb 65f
1:20am  -   -   -  18 25 mph 1028.1mb 65f
1:10am  -   -   -  20 25 mph 1028.1mb 65f
1:00am  -   -   -  20 27 mph 1028.1mb 65f
12:50am 5ft 8s 5s 18 25 mph 1028.2mb 65f
12:40am  -   -   -  20 27 mph 1028.1mb 65f
12:30am  -   -   -  18 25 mph 1028.2mb 65f
12:20am  -   -   -  18 25 mph 1028.3mb 65f
12:10am  -   -   -  18 25 mph 1028.3mb 65f
12:00am  -   -   -  20 25 mph 1028.3mb 65f
Mon 01/21 11:50pm 5ft 7s 5s 18 25 mph 1028.3mb 65f
11:40pm 5ft  -  5s 20 27 mph 1028.3mb 65f
11:30pm  -   -   -  20 27 mph 1028.3mb 65f
11:20pm  -   -   -  20 25 mph 1028.3mb 65f
11:10pm  -   -   -  20 25 mph 1028.1mb 65f
11:00pm  -   -   -  18 25 mph 1028.1mb 65f
10:50pm 4.5ft 6s 5s 18 20 mph 1028.3mb 65f
10:40pm  -   -   -  18 20 mph 1028.3mb 65f
10:30pm  -   -   -  18 22 mph 1028.2mb 65f
10:20pm  -   -   -  16 20 mph 1028.1mb 65f
10:10pm  -   -   -  18 25 mph 1028.2mb 65f
10:00pm  -   -   -  18 22 mph 1028mb 65f
9:50pm 4.5ft 8s 5s 20 25 mph 1028mb 65f
9:40pm  -   -   -  18 25 mph 1027.8mb 65f
9:30pm  -   -   -  18 22 mph 1027.8mb 65f
9:20pm  -   -   -  18 27 mph 1027.8mb 65f
9:10pm  -   -   -  18 22 mph 1027.7mb 65f
9:00pm  -   -   -  16 22 mph 1027.7mb 64f
8:50pm 4.5ft  -  5s 18 22 mph 1027.7mb -
8:40pm 4.5ft  -  5s 18 25 mph 1027.7mb 64f
8:30pm  -   -   -  18 22 mph 1027.7mb 64f
8:20pm  -   -   -  18 20 mph 1027.6mb 64f
8:10pm  -   -   -  18 25 mph 1027.5mb 64f
8:00pm  -   -   -  20 25 mph - 64f
7:50pm 5ft 6s 5s 18 22 mph 1027.2mb 64f
7:40pm 5ft  -  5s 16 25 mph 1027.1mb 63f
7:30pm  -   -   -  16 25 mph 1027.1mb 64f
7:20pm  -   -   -  16 20 mph 1027mb 63f
7:10pm  -   -   -  16 20 mph 1026.9mb 63f
7:00pm  -   -   -  16 25 mph 1026.9mb 63f
6:50pm 5ft 6s 5s 18 20 mph 1026.8mb 63f
6:40pm 5ft  -  5s 18 22 mph 1026.7mb 63f
6:20pm  -   -   -  18 22 mph 1026.6mb 63f
6:10pm  -   -   -  18 25 mph 1026.6mb 63f
6:00pm  -   -   -  18 25 mph 1026.5mb 63f
5:50pm 5ft 8s 5s 18 25 mph 1026.4mb 62f
5:40pm  -   -   -  20 27 mph 1026.4mb 62f
5:30pm  -   -   -  20 27 mph 1026.3mb 62f
5:20pm  -   -   -  20 27 mph 1026.3mb 62f
5:10pm  -   -   -  20 25 mph 1026.2mb 62f
5:00pm  -   -   -  20 27 mph 1026.1mb 62f
4:50pm 5ft 7s 5s 18 25 mph 1026.1mb 62f
4:40pm  -   -   -  18 25 mph 1026.1mb 62f
4:30pm  -   -   -  20 27 mph 1026.1mb -
4:20pm  -   -   -  20 27 mph 1026.1mb 62f
4:10pm  -   -   -  20 29 mph 1026mb 61f
4:00pm  -   -   -  20 27 mph 1025.8mb 61f
3:50pm 5ft 6s 5s 20 27 mph 1025.9mb 61f
3:40pm 5ft  -  5s 20 25 mph 1025.8mb 61f
3:30pm  -   -   -  20 25 mph 1025.7mb 61f
3:20pm  -   -   -  18 25 mph 1025.6mb 60f
3:10pm  -   -   -  20 27 mph 1025.7mb 60f
3:00pm  -   -   -  20 27 mph 1025.7mb 60f
2:50pm 5ft 6s 5s 20 27 mph 1025.6mb 60f
2:40pm  -   -   -  20 27 mph 1025.6mb 60f
2:30pm  -   -   -  20 27 mph 1025.6mb 60f
2:20pm  -   -   -  20 27 mph 1025.5mb 60f
2:10pm  -   -   -  18 27 mph 1025.6mb 60f
2:00pm  -   -   -  20 27 mph 1025.6mb 60f
1:50pm 4.5ft 6s 5s 20 25 mph 1025.6mb 60f
1:40pm 4.5ft  -  5s 20 29 mph 1025.5mb 60f
1:30pm  -   -   -  20 27 mph 1025.6mb 60f
1:20pm  -   -   -  20 27 mph 1025.7mb 60f
1:10pm  -   -   -  20 29 mph 1025.8mb 60f
1:00pm  -   -   -  20 25 mph 1025.9mb 60f
12:50pm 5ft 6s 5s 20 27 mph 1025.9mb 60f
12:40pm  -   -   -  22 27 mph 1026.1mb 60f
12:30pm  -   -   -  22 29 mph 1026.1mb 60f
12:20pm  -   -   -  22 27 mph 1026.2mb 60f
12:10pm  -   -   -  20 27 mph 1026.1mb 60f
12:00pm  -   -   -  20 27 mph 1025.9mb 60f
11:50am 4.5ft 6s 5s 20 27 mph 1026mb 60f
11:40am  -   -   -  20 25 mph 1026mb 59f
11:30am  -   -   -  20 27 mph 1026mb 59f
11:20am  -   -   -  18 25 mph 1025.8mb 60f
11:10am  -   -   -  18 25 mph 1025.8mb 59f
11:00am  -   -   -  18 22 mph 1025.8mb 59f
10:50am 4.5ft 6s 5s 18 25 mph 1025.8mb 59f
10:40am  -   -   -  20 25 mph 1025.6mb 58f
10:30am  -   -   -  18 25 mph 1025.6mb 58f
10:20am  -   -   -  18 22 mph 1025.5mb 58f
10:10am  -   -   -  18 22 mph 1025.5mb 58f
10:00am  -   -   -  18 22 mph 1025.4mb 58f
9:50am 4.5ft 6s 5s 18 22 mph 1025.3mb 57f
9:40am  -   -   -  16 20 mph 1025.3mb 57f
9:30am  -   -   -  16 22 mph 1025.2mb 57f
9:20am  -   -   -  18 22 mph 1025mb 57f
9:10am  -   -   -  16 22 mph 1024.8mb 56f
9:00am  -   -   -  18 25 mph 1024.7mb 56f
8:50am 5ft 7s 5s 16 22 mph 1024.6mb 56f
8:40am  -   -   -  16 22 mph 1024.5mb 56f
8:30am  -   -   -  16 22 mph 1024.5mb 55f
8:20am  -   -   -  18 22 mph 1024.4mb 55f
8:10am  -   -   -  18 25 mph 1024.2mb 55f
8:00am  -   -   -  18 22 mph 1024.1mb 55f
7:50am 5ft 7s 5s 18 22 mph 1024mb 55f
7:40am  -   -   -  18 27 mph 1023.8mb 55f
7:30am  -   -   -  18 22 mph 1023.7mb 55f
7:20am  -   -   -  18 27 mph 1023.4mb 55f
7:10am  -   -   -  18 27 mph 1023.3mb 55f
7:00am  -   -   -  18 27 mph 1023.2mb 55f
6:50am 5ft 6s 6s 18 22 mph 1023.1mb 55f
6:40am  -   -   -  18 25 mph 1022.9mb 54f
6:30am  -   -   -  18 22 mph 1022.8mb 54f
6:20am  -   -   -  18 25 mph 1022.8mb 55f
6:10am  -   -   -  18 25 mph 1022.7mb 54f
6:00am  -   -   -  16 22 mph 1022.5mb 54f
5:50am 5.5ft 7s 6s 16 22 mph 1022.4mb 54f
5:40am 5.5ft  -  6s 16 22 mph 1022.2mb 54f
5:30am  -   -   -  16 22 mph 1022.2mb 54f
5:20am  -   -   -  18 25 mph 1022.3mb 53f
5:10am  -   -   -  18 25 mph 1022.4mb 53f
5:00am  -   -   -  18 25 mph 1022.2mb 53f
4:50am 6ft 7s 5s 18 27 mph 1022.2mb 53f
4:40am  -   -   -  18 25 mph 1022.2mb 53f
4:30am  -   -   -  18 27 mph 1022.2mb 53f
4:20am  -   -   -  18 25 mph 1022.2mb 53f
4:10am  -   -   -  18 25 mph 1022.2mb 52f
4:00am  -   -   -  20 27 mph 1022mb 53f
3:50am 6ft 7s 5s 18 25 mph 1022mb 53f
3:40am  -   -   -  20 27 mph 1022mb 53f
3:30am  -   -   -  20 27 mph 1022.1mb 53f
3:20am  -   -   -  20 27 mph 1021.9mb 53f
3:10am  -   -   -  20 29 mph 1021.7mb 53f
3:00am  -   -   -  22 29 mph 1021.7mb 53f
2:50am 6ft 6s 5s 20 27 mph 1021.6mb 53f
2:40am  -   -   -  22 29 mph 1021.4mb 53f
2:30am  -   -   -  22 27 mph 1021.5mb 53f
2:20am  -   -   -  20 29 mph 1021.2mb 53f
2:10am  -   -   -  22 29 mph 1021.2mb 53f
2:00am  -   -   -  22 29 mph 1021.2mb 53f
1:50am 6.5ft 7s 5s 22 29 mph 1021.2mb 53f
1:40am 6.5ft  -  5s 22 31 mph 1021.2mb 53f
1:30am  -   -   -  22 29 mph 1021.2mb 53f
1:20am  -   -   -  22 29 mph 1021.3mb 53f
1:10am  -   -   -  25 29 mph 1021.4mb 53f
1:00am  -   -   -  22 29 mph 1021.4mb 53f
12:50am 6ft 6s 5s 22 29 mph 1021.3mb 53f
12:40am 6ft  -  5s 22 31 mph 1021.4mb 53f
12:30am  -   -   -  22 29 mph 1021.3mb 53f
12:20am  -   -   -  25 31 mph 1021.2mb 53f
12:10am  -   -   -  22 31 mph 1021.2mb 53f
12:00am  -   -   -  22 29 mph 1021.2mb 53f
Sun 01/20 11:50pm 5.5ft 6s 5s 22 29 mph 1021.1mb 53f
11:40pm 5.5ft  -  5s 22 29 mph 1021.2mb 53f
11:30pm  -   -   -  22 29 mph 1021mb 53f
11:20pm  -   -   -  22 29 mph 1021mb 53f
11:10pm  -   -   -  22 29 mph 1021mb 53f
11:00pm  -   -   -  22 31 mph 1020.8mb 53f
10:50pm 6ft 6s 5s 22 29 mph 1020.5mb 53f
10:40pm  -   -   -  25 31 mph 1020.5mb 53f
10:30pm  -   -   -  25 31 mph 1020.3mb 54f
10:20pm  -   -   -  25 34 mph 1020.1mb 54f
10:10pm  -   -   -  25 34 mph 1020mb 54f
10:00pm  -   -   -  25 34 mph 1019.8mb 54f
9:50pm 6ft 7s 5s 27 34 mph 1019.6mb 54f
9:40pm  -   -   -  27 36 mph 1019.4mb 55f
9:30pm  -   -   -  25 31 mph 1019.3mb 55f
9:20pm  -   -   -  25 34 mph 1019.2mb 55f
9:10pm  -   -   -  22 29 mph 1019mb 55f
9:00pm  -   -   -  22 34 mph 1018.8mb 55f
8:50pm 5ft 6s 5s 25 31 mph 1018.5mb 55f
8:40pm  -   -   -  22 29 mph 1018.1mb 55f
8:30pm  -   -   -  22 31 mph 1017.8mb 54f
8:20pm  -   -   -  22 31 mph 1017.8mb 55f
8:10pm  -   -   -  25 31 mph 1017.9mb 55f
8:00pm  -   -   -  27 34 mph 1017.8mb 55f
7:50pm 5ft 6s 5s 25 31 mph 1017.5mb 55f
7:40pm  -   -   -  27 34 mph 1017.2mb 56f
7:30pm  -   -   -  25 31 mph 1017.1mb 56f
7:20pm  -   -   -  25 31 mph 1016.7mb 56f
7:10pm  -   -   -  25 34 mph 1016.5mb 57f
7:00pm  -   -   -  27 34 mph 1016.1mb 57f
6:50pm 5.5ft 6s 5s 27 34 mph 1015.7mb 57f
6:40pm  -   -   -  27 34 mph 1015.3mb 58f
6:20pm  -   -   -  27 34 mph 1014.7mb 58f
6:10pm  -   -   -  25 31 mph 1014.4mb 59f
6:00pm  -   -   -  25 29 mph 1014.1mb 59f
5:50pm 5.5ft 6s 5s 25 31 mph 1014mb 60f
5:40pm  -   -   -  27 34 mph 1013.9mb 60f
5:30pm  -   -   -  25 34 mph 1013.7mb 60f
5:20pm  -   -   -  27 34 mph 1013.6mb 61f
5:10pm  -   -   -  25 31 mph 1013.4mb 61f
5:00pm  -   -   -  22 31 mph 1013.2mb 61f
4:50pm 6ft 6s 5s 25 34 mph 1012.9mb 62f
4:40pm 6ft  -  5s 27 34 mph 1012.9mb 62f
4:30pm  -   -   -  27 31 mph 1012.8mb 62f
4:20pm  -   -   -  27 34 mph 1012.7mb 62f
4:10pm  -   -   -  27 36 mph 1012.4mb 62f
4:00pm  -   -   -  27 34 mph 1012.4mb 63f
3:50pm 6.5ft 6s 5s 27 36 mph 1012.2mb 62f
3:40pm 6.5ft  -  5s 27 31 mph 1012.1mb 62f
3:30pm  -   -   -  27 34 mph 1011.9mb 62f
3:20pm  -   -   -  27 34 mph 1011.8mb 62f
3:10pm  -   -   -  29 36 mph 1011.7mb 62f
3:00pm  -   -   -  29 36 mph 1011.7mb 63f
2:50pm 6ft 6s 5s 29 36 mph 1011.6mb 64f
2:40pm  -   -   -  29 38 mph 1011.5mb 64f
2:30pm  -   -   -  31 38 mph 1011.3mb 64f
2:20pm  -   -   -  31 38 mph 1011mb 65f
2:10pm  -   -   -  29 40 mph 1010.9mb 65f
2:00pm  -   -   -  29 36 mph 1011mb 65f
1:50pm 6ft 5s 5s 31 38 mph 1010.7mb 65f
1:40pm  -   -   -  29 36 mph 1010.8mb 65f
1:30pm  -   -   -  29 36 mph 1010.7mb 65f
1:20pm  -   -   -  29 40 mph 1010.7mb 66f
1:10pm  -   -   -  29 36 mph 1010.7mb 66f
1:00pm  -   -   -  29 36 mph 1010.7mb 66f
12:50pm 5ft 5s 5s 29 36 mph 1010.8mb 66f
12:40pm  -   -   -  29 36 mph 1010.8mb 66f
12:30pm  -   -   -  27 36 mph 1010.9mb 66f
12:20pm  -   -   -  27 34 mph 1011mb 65f
12:10pm  -   -   -  27 34 mph 1011mb 65f
12:00pm  -   -   -  25 31 mph 1011mb 65f
11:50am 5ft 5s 5s 25 34 mph 1011.1mb 66f
11:40am  -   -   -  29 34 mph 1011.2mb 66f
11:30am  -   -   -  29 36 mph 1011.3mb 66f
11:20am  -   -   -  27 34 mph 1011.4mb 66f
11:10am  -   -   -  29 38 mph 1011.5mb 66f
11:00am  -   -   -  31 38 mph 1011.3mb 66f
10:50am 5ft 5s 4s 34 43 mph 1011.3mb 66f
10:40am  -   -   -  31 40 mph 1011.1mb 66f
10:30am  -   -   -  29 36 mph 1011mb 66f
10:20am  -   -   -  27 36 mph 1011mb 66f
10:10am  -   -   -  29 36 mph 1010.9mb 66f
10:00am  -   -   -  29 34 mph 1010.7mb 66f
9:50am 5ft 5s 4s 27 34 mph 1010.6mb 66f
9:40am 5ft  -  4s 27 34 mph 1010.5mb 66f
9:30am  -   -   -  29 36 mph 1010.3mb 66f
9:20am  -   -   -  29 36 mph 1010mb 66f
9:10am  -   -   -  29 36 mph 1009.8mb 66f
9:00am  -   -   -  29 36 mph 1010mb 66f
8:50am 4.5ft 6s 4s 29 34 mph 1010mb 66f
8:40am 4.5ft  -  4s 27 34 mph 1009.8mb 67f
8:30am  -   -   -  27 34 mph 1009.7mb 67f
8:20am  -   -   -  27 31 mph 1009.6mb 67f
8:10am  -   -   -  25 29 mph 1009.4mb 67f
8:00am  -   -   -  25 31 mph 1009.4mb 67f
7:50am 5.5ft 6s 4s 25 31 mph 1009.3mb 67f
7:40am  -   -   -  25 31 mph 1009mb 67f
7:30am  -   -   -  25 31 mph 1008.8mb 67f
7:20am  -   -   -  27 36 mph 1008.8mb 69f
7:10am  -   -   -  25 31 mph 1008.6mb 70f
7:00am  -   -   -  25 29 mph 1008.3mb 71f
6:50am 6ft 6s 5s 27 34 mph 1008mb 71f
6:40am  -   -   -  27 34 mph 1007.8mb 71f
6:30am  -   -   -  27 34 mph 1007.7mb 71f
6:20am  -   -   -  29 34 mph 1007.6mb 71f
6:10am  -   -   -  27 34 mph 1007.5mb 71f
6:00am  -   -   -  27 38 mph 1007.3mb 72f
5:50am 6ft 5s 5s 27 34 mph 1007.4mb 71f
5:40am  -   -   -  27 34 mph 1007.5mb 71f
5:30am  -   -   -  29 34 mph 1007.4mb 71f
5:20am  -   -   -  29 34 mph 1007.4mb 71f
5:10am  -   -   -  27 36 mph 1007.4mb 71f
5:00am  -   -   -  27 36 mph 1007.1mb 71f
4:50am 5.5ft 6s 4s 29 36 mph 1007.5mb 71f
4:40am  -   -   -  29 36 mph 1007.6mb 71f
4:30am  -   -   -  29 36 mph 1007.7mb 71f
4:20am  -   -   -  31 40 mph 1007.9mb 71f
4:10am  -   -   -  31 40 mph 1008.1mb 71f
4:00am  -   -   -  34 40 mph 1008.2mb 71f
3:50am 6ft 6s 5s 29 36 mph 1008.3mb 72f
3:40am  -   -   -  29 36 mph 1008.4mb 72f
3:30am  -   -   -  27 34 mph 1008.4mb 72f
3:20am  -   -   -  29 38 mph 1008.8mb 72f
3:10am  -   -   -  29 36 mph 1008.9mb 72f
3:00am  -   -   -  29 38 mph 1009.1mb 72f
2:50am 6ft 6s 5s 29 36 mph 1009.1mb 72f
2:40am  -   -   -  27 34 mph 1009.2mb 72f
2:30am  -   -   -  27 36 mph 1009.2mb 72f
2:20am  -   -   -  27 34 mph 1009.4mb 71f